Home > Weather > Nukualofa > Past weeks

Flag for Tonga Weather for the Past 2 Weeks in Nukualofa, Tonga

Now
81 °F

Broken clouds.


Feels Like: 86 °F
Forecast: 77 / 81 °F
Wind: 8 mph from East

Location: Fua'Amotu

Current Time: May 5, 2016 at 12:00:35 PM

Latest Report: May 5, 2016 at 11:00 AM


Visibility: N/A

Pressure: 29.95 "Hg

Humidity: 84%

Dew Point: 75 °F

Location of NukualofaLocation

Historic Weather in Nukualofa — Graph

°F

Nukualofa Temperature Yesterday

Maximum temperature yesterday: 81 °F (at 11:00 AM)
Minimum temperature yesterday: 73 °F (at 12:00 AM)
Average temperature yesterday: 76 °F

High & Low Weather Summary for the Past Weeks

 TemperatureHumidityPressure
High82 °F (Apr 20, 2:00 PM)100% (Apr 23, 8:00 AM)30.09 "Hg (Apr 23, 8:00 AM)
Low66 °F (Apr 26, 6:00 AM)66% (Apr 22, 11:00 AM)29.86 "Hg (Apr 22, 3:00 PM)
Average76 °F83%29.97 "Hg
* Reported Apr 20 7:00 AM — May 5 7:00 AM, Nukualofa, Weather by CustomWeather, © 2016

Note: Actual official high and low records may vary slightly from our data, if they occured in-between our weather recording intervals... More about our weather records

Advertising

Nukualofa Weather History for the Previous 24 Hours

Scroll right to see more
 ConditionsComfort  
Time TempWeatherWind HumidityBarometerVisibility
7:00 AM
Thu, May 5
75 °FBroken clouds.6 mph94%29.92 "HgN/A
6:00 AM75 °FScattered clouds.7 mph94%29.89 "HgN/A
5:00 AM75 °FPassing clouds.8 mph94%29.89 "HgN/A
4:00 AM75 °FPartly cloudy.8 mph100%29.89 "HgN/A
3:00 AM75 °FPartly cloudy.2 mph100%29.89 "HgN/A
2:00 AM75 °FPassing clouds.3 mph100%29.89 "HgN/A
1:00 AM75 °FPassing clouds.6 mph100%29.92 "HgN/A
12:00 AM75 °FDrizzle. Mostly cloudy.6 mph100%29.92 "HgN/A
11:00 PM
Wed, May 4
75 °FPartly cloudy.No wind100%29.92 "HgN/A
10:00 PM75 °FDrizzle. Mostly cloudy.10 mph100%29.92 "HgN/A
9:00 PM75 °FMostly cloudy.9 mph100%29.92 "HgN/A
8:00 PM75 °FDrizzle. Mostly cloudy.8 mph100%29.92 "HgN/A
7:00 PM75 °FDrizzle. Mostly cloudy.8 mph100%29.89 "HgN/A
6:00 PM75 °FSprinkles. Mostly cloudy.8 mph100%29.89 "Hg1 mi
5:00 PM77 °FMore clouds than sun.10 mph94%29.86 "HgN/A
4:00 PM79 °FBroken clouds.10 mph89%29.89 "HgN/A
3:00 PM81 °FBroken clouds.14 mph84%29.89 "HgN/A
2:00 PM81 °FPartly sunny.12 mph79%29.89 "HgN/A
1:00 PM81 °FBroken clouds.15 mph84%29.92 "HgN/A
12:00 PM81 °FDrizzle. Partly sunny.13 mph79%29.92 "HgN/A
Weather by CustomWeather, © 2016

See weather overviewHow to use our weather pages